• en France
  • Liste des pays
  • À 7 jours
  • Température de l'eau
  • Carte satellitaire
  • Carte météo
  • Widgets météo
  • user-avatar
    Se connecter

    Météo par heure à Zirani

    Ce jour, 19 Août, Dimanche

    Heure Température Précipitation Vent Pression Humidité
    00:00 +20°C° 0,4 mm 3 m/s 711 mmHg 80%
    01:00 +20°C° 0,1 mm 2 m/s 711 mmHg 79%
    02:00 +19°C° 0,1 mm 2 m/s 711 mmHg 78%
    03:00 +19°C° 0 mm 2 m/s 711 mmHg 74%
    04:00 +19°C° 0,2 mm 2 m/s 711 mmHg 74%
    05:00 +19°C° 0,2 mm 2 m/s 711 mmHg 74%
    06:00 +19°C° 0,2 mm 2 m/s 711 mmHg 73%
    07:00 +21°C° 0 mm 2 m/s 711 mmHg 67%
    08:00 +24°C° 0 mm 3 m/s 712 mmHg 60%
    09:00 +25°C° 0 mm 3 m/s 712 mmHg 54%
    10:00 +26°C° 0,1 mm 3 m/s 712 mmHg 53%
    11:00 +26°C° 0,1 mm 4 m/s 712 mmHg 52%
    12:00 +27°C° 0,1 mm 4 m/s 712 mmHg 51%
    13:00 +26°C° 0,3 mm 4 m/s 712 mmHg 55%
    14:00 +25°C° 0,3 mm 4 m/s 712 mmHg 60%
    15:00 +24°C° 0,3 mm 3 m/s 712 mmHg 65%
    16:00 +24°C° 0,2 mm 3 m/s 712 mmHg 69%
    17:00 +22°C° 0,2 mm 3 m/s 712 mmHg 73%
    18:00 +21°C° 0,2 mm 2 m/s 712 mmHg 76%
    19:00 +20°C° 0 mm 2 m/s 713 mmHg 80%
    20:00 +20°C° 0 mm 1 m/s 713 mmHg 83%
    21:00 +19°C° 0 mm 1 m/s 713 mmHg 87%
    22:00 +19°C° 0 mm 1 m/s 713 mmHg 87%
    23:00 +18°C° 0 mm 1 m/s 713 mmHg 87%

    Demain, 20 Août, Lundi

    Heure Température Précipitation Vent Pression Humidité
    00:00 +18°C° 0 mm 1 m/s 713 mmHg 87%
    01:00 +16°C° 0 mm 1 m/s 713 mmHg 85%
    02:00 +16°C° 0 mm 1 m/s 713 mmHg 84%
    03:00 +16°C° 0 mm 1 m/s 713 mmHg 83%
    04:00 +16°C° 0 mm 1 m/s 714 mmHg 81%
    05:00 +18°C° 0 mm 1 m/s 714 mmHg 79%
    06:00 +18°C° 0 mm 1 m/s 714 mmHg 77%
    07:00 +20°C° 0 mm 1 m/s 715 mmHg 69%
    08:00 +22°C° 0 mm 1 m/s 715 mmHg 61%
    09:00 +24°C° 0 mm 2 m/s 715 mmHg 53%
    10:00 +25°C° 0 mm 2 m/s 715 mmHg 51%
    11:00 +26°C° 0 mm 3 m/s 715 mmHg 49%
    12:00 +27°C° 0 mm 3 m/s 715 mmHg 47%
    13:00 +27°C° 0 mm 3 m/s 715 mmHg 48%
    14:00 +27°C° 0 mm 3 m/s 715 mmHg 49%
    15:00 +27°C° 0 mm 4 m/s 715 mmHg 50%
    16:00 +26°C° 0 mm 3 m/s 715 mmHg 55%
    17:00 +25°C° 0 mm 3 m/s 714 mmHg 59%
    18:00 +24°C° 0 mm 3 m/s 714 mmHg 64%
    19:00 +21°C° 0 mm 3 m/s 714 mmHg 67%
    20:00 +20°C° 0 mm 2 m/s 714 mmHg 71%
    21:00 +19°C° 0 mm 2 m/s 714 mmHg 74%
    22:00 +19°C° 0 mm 2 m/s 714 mmHg 74%
    23:00 +18°C° 0 mm 2 m/s 714 mmHg 73%

    Après-demain, 21 Août, Mardi

    Heure Température Précipitation Vent Pression Humidité
    00:00 +18°C° 0 mm 2 m/s 714 mmHg 72%
    01:00 +18°C° 0 mm 2 m/s 713 mmHg 71%
    02:00 +18°C° 0 mm 2 m/s 713 mmHg 69%
    03:00 +18°C° 0 mm 2 m/s 713 mmHg 68%
    04:00 +18°C° 0 mm 2 m/s 713 mmHg 66%
    05:00 +19°C° 0 mm 2 m/s 713 mmHg 65%
    06:00 +19°C° 0 mm 2 m/s 713 mmHg 64%
    07:00 +21°C° 0,1 mm 2 m/s 713 mmHg 60%
    08:00 +24°C° 0,1 mm 2 m/s 713 mmHg 57%
    09:00 +25°C° 0,1 mm 2 m/s 714 mmHg 53%
    10:00 +26°C° 0 mm 2 m/s 713 mmHg 51%
    11:00 +28°C° 0 mm 3 m/s 713 mmHg 48%
    12:00 +29°C° 0 mm 3 m/s 713 mmHg 46%
    13:00 +29°C° 0,1 mm 3 m/s 713 mmHg 48%
    14:00 +29°C° 0,1 mm 3 m/s 713 mmHg 50%
    15:00 +29°C° 0,1 mm 4 m/s 713 mmHg 52%
    16:00 +28°C° 0,2 mm 3 m/s 712 mmHg 58%
    17:00 +26°C° 0,2 mm 3 m/s 712 mmHg 64%
    18:00 +25°C° 0,2 mm 2 m/s 712 mmHg 69%
    19:00 +24°C° 0,2 mm 2 m/s 712 mmHg 74%
    20:00 +23°C° 0,2 mm 2 m/s 713 mmHg 78%
    21:00 +20°C° 0,2 mm 2 m/s 713 mmHg 83%
    22:00 +21°C° 0 mm 1 m/s 713 mmHg 81%
    23:00 +21°C° 0 mm 1 m/s 713 mmHg 80%

    22 Août, Mercredi

    Heure Température Précipitation Vent Pression Humidité
    00:00 +21°C° 0 mm 1 m/s 712 mmHg 78%
    01:00 +21°C° 0 mm 1 m/s 712 mmHg 77%
    02:00 +21°C° 0 mm 1 m/s 712 mmHg 75%
    03:00 +20°C° 0 mm 1 m/s 712 mmHg 74%
    04:00 +21°C° 0 mm 1 m/s 712 mmHg 72%
    05:00 +21°C° 0 mm 1 m/s 712 mmHg 71%
    06:00 +21°C° 0 mm 1 m/s 712 mmHg 69%
    07:00 +23°C° 0 mm 1 m/s 713 mmHg 64%
    08:00 +26°C° 0 mm 1 m/s 713 mmHg 59%
    09:00 +28°C° 0 mm 1 m/s 713 mmHg 54%
    10:00 +28°C° 0,1 mm 2 m/s 713 mmHg 53%
    11:00 +29°C° 0,1 mm 2 m/s 713 mmHg 51%
    12:00 +30°C° 0,1 mm 3 m/s 713 mmHg 50%
    13:00 +30°C° 0,3 mm 3 m/s 713 mmHg 52%
    14:00 +30°C° 0,3 mm 3 m/s 712 mmHg 53%
    15:00 +29°C° 0,3 mm 3 m/s 712 mmHg 55%
    16:00 +29°C° 0,3 mm 2 m/s 712 mmHg 60%
    17:00 +28°C° 0,3 mm 2 m/s 713 mmHg 64%
    18:00 +27°C° 0,3 mm 1 m/s 713 mmHg 68%
    19:00 +25°C° 0,1 mm 1 m/s 713 mmHg 73%
    20:00 +24°C° 0,1 mm 1 m/s 713 mmHg 77%
    21:00 +23°C° 0,1 mm 1 m/s 713 mmHg 81%
    22:00 +22°C° 0,1 mm 1 m/s 714 mmHg 81%
    23:00 +22°C° 0,1 mm 1 m/s 714 mmHg 81%

    23 Août, Jeudi

    Heure Température Précipitation Vent Pression Humidité
    00:00 +22°C° 0,1 mm 1 m/s 714 mmHg 80%
    01:00 +22°C° 0,1 mm 1 m/s 714 mmHg 80%
    02:00 +22°C° 0,1 mm 1 m/s 714 mmHg 79%
    03:00 +21°C° 0,1 mm 1 m/s 714 mmHg 79%
    04:00 +22°C° 0 mm 1 m/s 714 mmHg 78%
    05:00 +22°C° 0 mm 1 m/s 714 mmHg 77%
    06:00 +22°C° 0 mm 1 m/s 714 mmHg 76%
    07:00 +24°C° 0 mm 1 m/s 715 mmHg 69%
    08:00 +26°C° 0 mm 2 m/s 715 mmHg 63%
    09:00 +27°C° 0 mm 2 m/s 715 mmHg 57%
    10:00 +28°C° 0,1 mm 2 m/s 715 mmHg 56%
    11:00 +29°C° 0,1 mm 3 m/s 715 mmHg 54%
    12:00 +29°C° 0,1 mm 3 m/s 715 mmHg 52%
    13:00 +29°C° 0,6 mm 3 m/s 714 mmHg 53%
    14:00 +29°C° 0,6 mm 3 m/s 714 mmHg 54%
    15:00 +29°C° 0,6 mm 3 m/s 714 mmHg 54%
    16:00 +28°C° 0,3 mm 3 m/s 714 mmHg 58%
    17:00 +27°C° 0,3 mm 2 m/s 714 mmHg 62%
    18:00 +26°C° 0,3 mm 2 m/s 714 mmHg 66%
    19:00 +25°C° 0 mm 1 m/s 714 mmHg 69%
    20:00 +23°C° 0 mm 1 m/s 715 mmHg 73%
    21:00 +22°C° 0 mm 1 m/s 715 mmHg 77%
    22:00 +22°C° 0 mm 1 m/s 715 mmHg 76%
    23:00 +22°C° 0 mm 1 m/s 715 mmHg 75%

    24 Août, Vendredi

    Heure Température Précipitation Vent Pression Humidité
    00:00 +21°C° 0 mm 1 m/s 715 mmHg 74%
    01:00 +21°C° 0 mm 1 m/s 715 mmHg 73%
    02:00 +21°C° 0 mm 1 m/s 714 mmHg 72%
    03:00 +21°C° 0 mm 1 m/s 714 mmHg 71%
    04:00 +21°C° 0 mm 1 m/s 715 mmHg 70%
    05:00 +21°C° 0 mm 1 m/s 715 mmHg 69%
    06:00 +21°C° 0 mm 1 m/s 715 mmHg 68%
    07:00 +24°C° 0 mm 2 m/s 715 mmHg 63%
    08:00 +26°C° 0 mm 2 m/s 715 mmHg 57%
    09:00 +28°C° 0 mm 2 m/s 715 mmHg 52%
    10:00 +29°C° 0 mm 3 m/s 715 mmHg 50%
    11:00 +29°C° 0 mm 3 m/s 715 mmHg 48%
    12:00 +30°C° 0 mm 3 m/s 714 mmHg 47%
    13:00 +30°C° 0 mm 4 m/s 714 mmHg 48%
    14:00 +30°C° 0 mm 4 m/s 714 mmHg 50%
    15:00 +30°C° 0 mm 4 m/s 713 mmHg 51%
    16:00 +29°C° 0 mm 3 m/s 713 mmHg 57%
    17:00 +27°C° 0 mm 3 m/s 713 mmHg 62%
    18:00 +26°C° 0 mm 3 m/s 713 mmHg 68%
    19:00 +25°C° 0 mm 2 m/s 713 mmHg 70%
    20:00 +24°C° 0 mm 2 m/s 713 mmHg 73%
    21:00 +21°C° 0 mm 2 m/s 713 mmHg 76%
    22:00 +21°C° 0 mm 2 m/s 713 mmHg 72%
    23:00 +21°C° 0 mm 2 m/s 713 mmHg 68%
    Voir plus